EST,Max TemperatureF,Mean TemperatureF,Min TemperatureF,Max Dew PointF,MeanDew PointF,Min DewpointF,Max Humidity, Mean Humidity, Min Humidity, Max Sea Level PressureIn, Mean Sea Level PressureIn, Min Sea Level PressureIn, Max VisibilityMiles, Mean VisibilityMiles, Min VisibilityMiles, Max Wind SpeedMPH, Mean Wind SpeedMPH, Max Gust SpeedMPH,PrecipitationIn, CloudCover, Events, WindDirDegrees
2014-1-1,24,21,18,18,16,14,92,83,74,30.35,30.27,30.13,10,5,1,9,5,13,0.08,8,Snow,46
2014-1-2,20,14,8,16,11,2,84,79,73,30.11,29.92,29.76,10,3,0,29,12,38,0.24,8,Snow,8
2014-1-3,15,9,2,2,0,-2,87,73,58,30.44,30.32,30.09,10,8,2,22,8,30,0.01,6,Snow,308
2014-1-4,34,22,9,11,5,1,73,53,32,30.30,30.18,30.09,10,10,10,21,11,28,0.00,5,,181
2014-1-5,44,37,29,41,23,12,89,66,43,30.11,29.86,29.34,10,10,3,16,7,23,0.27,8,Rain,143
2014-1-6,46,18,-11,43,9,-22,92,75,57,30.18,29.74,29.28,10,5,1,36,19,48,0.18,7,Rain-Snow,254
2014-1-7,2,-5,-12,-6,-15,-22,75,66,57,30.42,30.28,30.08,10,8,2,26,17,37,T,4,Snow,237
2014-1-8,21,11,1,14,4,-5,79,70,61,30.50,30.45,30.40,10,10,9,14,7,17,T,6,Snow,199
2014-1-9,29,20,10,26,17,9,88,76,63,30.61,30.49,30.33,10,8,0,12,6,15,0.05,7,Snow,143
2014-1-10,44,36,28,40,33,26,96,93,89,30.33,30.17,29.84,10,3,0,17,9,24,0.21,8,Fog-Rain-Snow,153
2014-1-11,52,43,34,48,40,27,93,82,70,29.80,29.53,29.33,10,9,2,31,14,43,0.43,8,Rain,214
2014-1-12,35,33,31,28,27,26,85,78,70,30.03,29.90,29.68,10,9,6,23,11,30,T,7,Rain-Snow,236
2014-1-13,49,42,34,43,34,27,92,71,50,29.93,29.79,29.68,10,9,4,16,11,25,0.20,7,Rain,184
2014-1-14,46,40,33,43,33,26,100,82,64,29.81,29.75,29.67,10,7,1,14,7,17,0.06,7,Rain,247
2014-1-15,39,31,23,30,19,11,81,66,50,30.03,29.92,29.74,10,8,2,21,11,29,0.03,8,Rain-Snow,248
2014-1-16,31,26,20,20,15,11,75,61,46,29.99,29.89,29.78,10,8,2,17,10,24,0.01,8,Snow,195
2014-1-17,38,28,17,30,24,9,92,73,53,29.94,29.80,29.73,10,6,0,21,10,25,0.17,7,Snow-Thunderstorm,200
2014-1-18,17,13,9,12,6,1,76,69,61,30.02,29.94,29.81,10,7,2,21,9,26,0.03,7,Snow,215
2014-1-19,31,23,15,20,15,12,92,75,58,29.83,29.74,29.66,10,7,1,30,14,38,0.04,7,Snow,206
2014-1-20,34,26,18,28,20,12,92,78,63,29.98,29.77,29.57,10,8,2,20,11,26,0.03,8,Snow,302
2014-1-21,18,8,-3,11,2,-8,80,69,58,30.14,30.02,29.88,10,9,2,21,11,26,0.01,6,Snow,12
2014-1-22,10,2,-6,2,-4,-11,82,70,58,30.14,30.07,29.96,10,8,4,10,4,16,T,6,Snow,235
2014-1-23,12,7,2,4,1,-3,88,76,63,30.47,30.23,30.02,10,6,1,21,10,26,0.03,7,Snow,248
2014-1-24,17,7,-3,0,-3,-7,87,69,51,30.48,30.26,29.78,10,8,2,24,14,33,0.01,7,Snow,211
2014-1-25,27,19,10,20,11,0,88,68,47,29.75,29.52,29.27,10,3,0,26,15,36,0.25,8,Snow,259
2014-1-26,34,19,4,24,6,-2,86,74,62,29.82,29.67,29.49,10,6,0,17,10,26,0.02,8,Snow,207
2014-1-27,38,18,-2,27,6,-11,76,62,48,30.32,29.88,29.42,10,6,0,31,15,45,0.05,7,Rain-Snow,268
2014-1-28,4,-4,-12,-9,-13,-17,79,65,51,30.46,30.37,30.30,10,10,6,15,8,21,0.00,4,,222
2014-1-29,15,5,-6,-2,-8,-16,75,59,42,30.32,30.26,30.22,10,10,9,24,13,30,0.00,0,,223
2014-1-30,31,19,6,4,-1,-4,63,45,27,30.32,30.17,29.94,10,10,10,21,11,30,0.00,4,,181
2014-1-31,34,32,29,27,17,6,85,58,31,30.18,30.10,29.98,10,8,2,16,9,22,0.02,8,Snow,219